This is the latest recevied weather packets stored in our database for station/object AG7BI. If no packets are shown the sender has not sent any weather packets the latest 10 day(s).
| Time | Temp. | Humidity | Pressure | Rain* | Wind** | Luminosity | Snow |
|---|---|---|---|---|---|---|---|
| 1777479352 | 10° C | 81% | 1026.4 hPa | 0 mm | - | - | - |
| 1777479052 | 9.44° C | 81% | 1026.2 hPa | 0 mm | - | - | - |
| 1777478752 | 9.44° C | 82% | 1026.3 hPa | 0 mm | - | - | - |
| 1777478452 | 8.89° C | 82% | 1026.2 hPa | 0 mm | - | - | - |
| 1777478152 | 8.89° C | 82% | 1026.1 hPa | 0 mm | - | - | - |
| 1777477852 | 8.89° C | 87% | 1026.3 hPa | 0 mm | - | - | - |
| 1777477552 | 8.89° C | 86% | 1026.3 hPa | 0 mm | - | - | - |
| 1777477252 | 8.33° C | 88% | 1026.4 hPa | 0 mm | - | - | - |
| 1777476952 | 8.33° C | 89% | 1026.4 hPa | 0 mm | - | - | - |
| 1777476652 | 8.33° C | 89% | 1026.5 hPa | 0 mm | - | - | - |
| 1777476352 | 7.78° C | 90% | 1026.6 hPa | 0 mm | - | - | - |
| 1777476052 | 7.78° C | 91% | 1026.3 hPa | 0 mm | - | - | - |
| 1777475752 | 7.78° C | 93% | 1026.5 hPa | 0 mm | - | - | - |
| 1777475452 | 7.22° C | 94% | 1026.4 hPa | 0 mm | - | - | - |
| 1777475152 | 7.22° C | 95% | 1026.5 hPa | 0 mm | - | - | - |
| 1777474852 | 7.22° C | 95% | 1026.5 hPa | 0 mm | - | - | - |
| 1777474552 | 6.67° C | 97% | 1026.6 hPa | 0 mm | - | - | - |
| 1777474252 | 6.67° C | 98% | 1026.5 hPa | 0 mm | - | - | - |
| 1777473952 | 6.67° C | 99% | 1026.4 hPa | 0 mm | - | - | - |
| 1777473652 | 6.11° C | 99% | 1026.3 hPa | 0 mm | - | - | - |
| 1777473352 | 6.11° C | 99% | 1026.6 hPa | 0 mm | - | - | - |
| 1777473052 | 6.11° C | 99% | 1026.5 hPa | 0 mm | - | - | - |
| 1777472752 | 6.11° C | 99% | 1026.3 hPa | 0 mm | - | - | - |
| 1777472452 | 5.56° C | 99% | 1026.4 hPa | 0 mm | - | - | - |
| 1777472152 | 5.56° C | 99% | 1026.3 hPa | 0 mm | - | - | - |
* Rain latest hour (hover to see other rain measurements)
** Current wind speed in m/s (hover to see current wind gust speed)